Weather Service Report


650 
ASUS42 KTBW 030016
RWRFL 
FLORIDA REGIONAL WEATHER ROUNDUP
NATIONAL WEATHER SERVICE TAMPA BAY RUSKIN FL
800 PM EDT THU JUL 02 2015

NOTE: "FAIR" INDICATES FEW OR NO CLOUDS BELOW 12,000 FEET WITH NO
SIGNIFICANT WEATHER AND/OR OBSTRUCTIONS TO VISIBILITY.


FLZ001>010-012>015-112-114-115-030100-
PANHANDLE FLORIDA
  
CITY           SKY/WX    TMP DP  RH WIND       PRES   REMARKS
PENSACOLA      PTCLDY    84  72  67 SW13      30.04S                  
PENSACOLA NAS  PTSUNNY   83  72  69 SW9       30.04S                  
MILTON NAS     MOCLDY    86  70  58 SW9       30.03                   
CRESTVIEW      MOCLDY    84  75  74 SE5       30.05S                  
DUKE FIELD     MOCLDY    84  74  72 S8        30.03S                  
VALPARAISO     MOCLDY    83  71  66 SW9       30.04F                  
MARY ESTHER    MOCLDY    83  72  68 SW9       30.03S                  
TRI COUNTY     FAIR      80  75  84 S5        30.05S                  
PANAMA CITY    FAIR      83  72  69 S8        30.04F                  
TYNDALL AFB    MOCLDY    83  73  71 W7        30.06R                  
APALACHICOLA   MOCLDY    84  74  71 SW6       30.06S                  

STATION/POSITION SKY/WX   TEMP    WIND        PRES    WAVE   SWELL
                          AIR SEA DIR/SP/G            HT/PER HT/PER
                          (F)     (DEG/KT/KT) (MB)    (FT/S) (FT/S)
30.1N   87.6W              83 82  230/ 10/ 12 1016.9F   1/ 4
29.2N   88.2W              84 85  190/  6/  6 1017.9F   1/ 5   2/ 5
28.8N   86.0W              84 85  170/  2/  4 1018.5S   2/ 6   2/ 6
PANAMA CITY BEAC           82 82  240/  7/  8 1017.6F
CAPE SAN BLAS    NOT AVBL
TOWER C                    80     220/  4/  4 1018.0S
28.5N   84.5W              84 87  350/  4/  6 1018.3F   2/ 8   2/ 8

$$
FLZ011-016>038-118-127-128-134-139-239-030100-
NORTH FLORIDA
  
CITY           SKY/WX    TMP DP  RH WIND       PRES   REMARKS
MARIANNA       CLOUDY    76  74  93 S8        30.04F                  
TALLAHASSEE    CLOUDY    78  72  81 SW5       30.06R                  
PERRY          CLOUDY    77  72  84 CALM      30.06F                  
CROSS CITY       N/A     80  70  71 CALM      30.06F                  
LAKE CITY      FAIR      72  72 100 SW3       30.06F                  
GAINESVILLE    MOCLDY    75  70  84 W5        30.08F                  
MAYPORT NAS    CLOUDY    80  68  66 W8        30.05F                  
JACKSONVILLE   LGT RAIN  73  71  93 NW6       30.05F                  
JAX NAS        CLOUDY    81  67  62 W8        30.06F                  
JAX CRAIG      CLOUDY    80  67  64 W9        30.06F                  
JAX CECIL      MOCLDY    75  70  83 W8        30.07F                  
FERNANDINA BEA CLOUDY    77  72  83 W5        30.05S                  
ST AUGUSTINE   MOCLDY    77  72  84 W3        30.08S                  

STATION/POSITION SKY/WX   TEMP    WIND        PRES    WAVE   SWELL
                          AIR SEA DIR/SP/G            HT/PER HT/PER
                          (F)     (DEG/KT/KT) (MB)    (FT/S) (FT/S)
SHELL POINT                77      70/  2/  5   N/A
KEATON BEACH               79      30/  2/  3 1017.9F
CEDAR KEY                  82     360/  4/  5 1018.9F
FERNANDINA                 76 82  230/ 13/ 17 1017.3R
30.7N   81.3W                 78                N/A     3/ 4
MAYPORT                    80 81  260/ 11/ 14 1018.5R
31.4N   80.9W              76 79  280/ 27/ 35 1016.4R   5/ 5   2/ 9
ST AUGUSTINE               76 73  210/  6/  7 1019.4S

$$
FLZ040-043>046-052-053-057-058-063-144-030100-
INTERIOR CENTRAL FLORIDA
  
CITY           SKY/WX    TMP DP  RH WIND       PRES   REMARKS
OCALA          MOCLDY    79  73  83 N9        30.10R                  
THE VILLAGES     N/A    N/A N/A N/A CALM      29.99R                  
LEESBURG       MOCLDY    79  73  82 SE6       30.10R                  
SANFORD        CLOUDY    75  71  87 S5        30.10R                  
ORLANDO EXEC   CLOUDY    76  72  87 SE9       30.11R                  
ORLANDO INTL   CLOUDY    79  72  78 E12       30.11R                  
KISSIMMEE      PTCLDY    81  72  74 E13G18    30.12S                  
WINTER HAVEN   MOCLDY    81  74  79 NW3       30.11R                  
LAKELAND       PTCLDY    81  73  78 NE3       30.11R                  
BARTOW         FAIR      79  73  83 CALM      30.11R                  
OKEECHOBEE     MOCLDY    81  72  74 NW12G18   30.12R                  

$$
FLZ041-047-054-059-064-141-147-030100-
EAST CENTRAL FLORIDA
  
CITY           SKY/WX    TMP DP  RH WIND       PRES   REMARKS
DAYTONA BEACH  CLOUDY    76  71  85 CALM      30.09S                  
DELAND           N/A     75  72  88 SE3       30.10S                  
NEW SMYRNA BEA CLEAR     75  72  88 SE5       30.09F                  
JFK SPACE CTR  CLOUDY    73  70  90 S3        30.08F                  
CAPE CANAVERAL CLOUDY    73  71  93 E3        30.08F                  
PATRICK AFB    DRIZZLE   75  70  83 SE8       30.11S                  
MELBOURNE      LGT RAIN  74  70  87 S5        30.11R                  
VERO BEACH     CLOUDY    79  65  62 NW16G28   30.15R                  
FT PIERCE      PTCLDY    84  75  74 SE8       30.10R                  
STUART         MOCLDY    82  72  69 SE5       30.10R                  

STATION/POSITION SKY/WX   TEMP    WIND        PRES    WAVE   SWELL
                          AIR SEA DIR/SP/G            HT/PER HT/PER
                          (F)     (DEG/KT/KT) (MB)    (FT/S) (FT/S)
28.5N   80.2W              75 80  250/ 16/ 17 1019.7R
28.9N   78.5W              84 85  230/  8/ 10 1019.1R
TRIDENT PIER               74 81  130/  3/  4 1019.8F
28.4N   80.5W                 78                N/A     1/ 8
27.5N   80.2W                 80                N/A     2/ 8

$$
FLZ050-056-061-142-242-148-248-149-249-151-251-155-255-
160-260-030100-
WEST CENTRAL FLORIDA
  
CITY           SKY/WX    TMP DP  RH WIND       PRES   REMARKS
CRYSTAL RIVER  FAIR      82  70  65 CALM      30.09R                  
INVERNESS      FAIR     N/A N/A N/A CALM      30.10R                  
BROOKSVILLE    MOCLDY    85  70  60 NW5       30.10R                  
ZEPHYRHILLS    FAIR      79  73  83 CALM      30.11R                  
CLEARWATER     MOCLDY    85  74  69 N6        30.09R                  
TAMPA INTL     MOCLDY    85  72  65 N5        30.09R                  
TAMPA EXEC     MOCLDY   N/A N/A N/A CALM      30.10R                  
PLANT CITY     MOCLDY    81  79  94 CALM      30.12S                  
MACDILL AFB    MOCLDY    85  76  75 N5        30.09R                  
PETER O KNIGHT MOCLDY    88  73  62 NE3       30.09R HX  96           
ST PETERSBURG  MOCLDY    86  74  67 N10       30.07R                  
SARASOTA       PTCLDY    85  74  69 NE5       30.07R                  
VENICE         FAIR      86  75  70 N8        30.09R HX  95           

STATION/POSITION SKY/WX   TEMP    WIND        PRES    WAVE   SWELL
                          AIR SEA DIR/SP/G            HT/PER HT/PER
                          (F)     (DEG/KT/KT) (MB)    (FT/S) (FT/S)
CEDAR KEY                  82     360/  4/  5 1018.9F
28.5N   84.5W              84 87  350/  4/  6 1018.3F   2/ 8   2/ 8
27.3N   84.2W                 88                N/A     1/ 5
CLEARWATER BEACH           85 88  330/ 10/ 12 1018.2F
MIDDLE TAMPA BAY           86      10/ 10/ 12 1018.2F
VENICE                     87 91  340/ 10/ 13 1017.6S

$$
FLZ066-069-070-075>078-162-262-165-265-030100-
SOUTHWEST FLORIDA AND KEYS
  
CITY           SKY/WX    TMP DP  RH WIND       PRES   REMARKS
PUNTA GORDA    LGT RAIN  74  70  87 E22G31    30.12R                  
FT MYERS       CLOUDY    76  72  87 N14       30.09R                  
SOUTHWEST INTL TSTM      75  69  81 NE8       30.09R                  
NAPLES         MOCLDY    79  71  76 E14       30.08R                  
MARCO ISLAND   CLOUDY    81  66  61 NE7G16    30.09R                  
MARATHON       PTCLDY    85  74  69 SE9       30.06R                  
KEY WEST NAS   MOCLDY    85  74  69 E9        30.07R                  
KEY WEST INTL  PTCLDY    85  76  74 E9        30.07R                  

STATION/POSITION SKY/WX   TEMP    WIND        PRES    WAVE   SWELL
                          AIR SEA DIR/SP/G            HT/PER HT/PER
                          (F)     (DEG/KT/KT) (MB)    (FT/S) (FT/S)
VENICE                     87 91  340/ 10/ 13 1017.6S
NAPLES                        90              1018.6F
26.0N   85.6W              85 86   70/  8/ 10 1017.4R   3/ 7   2/ 7
DRY TORTUGAS               86     100/  3/  4 1017.4R
NW FL BAY                  87     130/ 11/ 14 1017.0
SAND KEY                   85     100/ 10/ 12 1018.0R
SOMBRERO KEY               85     110/ 12/ 12 1019.1R
LONG KEY                   85 88  130/ 10/ 11 1019.0R
MOLASSES REEF              84 85  120/ 11/ 13 1018.6R

$$
FLZ067-068-071>074-168-172>174-030100-
SOUTHEAST FLORIDA 
  
CITY           SKY/WX    TMP DP  RH WIND       PRES   REMARKS
W PALM BEACH   PTCLDY    84  73  69 SE9       30.09R                  
FT LAUDER-EXEC PTCLDY    85  73  67 E10       30.08R                  
FT LAUDERDALE  PTCLDY    85  74  69 E13       30.07R                  
POMPANO BEACH  PTCLDY    85  72  65 E8        30.08R                  
PEMBROKE PINES PTCLDY    85  73  67 E10       30.09R                  
OPA LOCKA      PTCLDY    85  73  67 E10       30.08R                  
MIAMI          MOCLDY    85  71  63 SE12      30.08R                  
WEST KENDALL   PTCLDY    84  72  67 E12       30.08R                  
HOMESTEAD      PTCLDY    84  71  64 E6        30.07R                  

STATION/POSITION SKY/WX   TEMP    WIND        PRES    WAVE   SWELL
                          AIR SEA DIR/SP/G            HT/PER HT/PER
                          (F)     (DEG/KT/KT) (MB)    (FT/S) (FT/S)
PORT EVERGLADES            85      90/  8/ 12 1017.8S
VIRGINIA KEY               85 89  100/  8/ 11 1017.4S
LAKE WORTH                 84 87  120/ 10/ 11 1017.7F
SETTLEMENT POINT           84     160/  4/  6 1019.7R

$$


Return to Home page


Western Regional Climate Center, wrcc@dri.edu